| time (UTC) | temp C | wind direction | speed KPH | gust KPH | rain 1hr cm | rain 24hr cm | rain mn cm | humidity % | barometer mb |
| 20260507000036 | 11 | 12 | 8.0 | 17.7 | 0.00 | 0.91 | 0.91 | 55 | 1007.9 |
| 20260506234531 | 11 | 47 | 8.0 | 20.9 | 0.00 | 0.91 | 0.91 | 54 | 1007.5 |
| 20260506233028 | 12 | 340 | 9.7 | 24.1 | 0.00 | 0.91 | 0.91 | 53 | 1007.2 |
| 20260506231523 | 13 | 319 | 6.4 | 19.3 | 0.00 | 0.91 | 0.91 | 52 | 1007.0 |
| 20260506230022 | 15 | 263 | 3.2 | 11.3 | 0.00 | 0.91 | 0.91 | 55 | 1006.0 |
| 20260506224522 | 15 | 245 | 3.2 | 12.9 | 0.00 | 0.91 | 0.91 | 55 | 1005.8 |
| 20260506223021 | 16 | 249 | 6.4 | 22.5 | 0.00 | 0.91 | 0.91 | 54 | 1005.5 |
| 20260506221521 | 16 | 273 | 6.4 | 17.7 | 0.00 | 0.91 | 0.91 | 54 | 1005.5 |
| 20260506220031 | 16 | 263 | 6.4 | 16.1 | 0.00 | 0.91 | 0.91 | 55 | 1005.1 |
| 20260506214521 | 16 | 240 | 4.8 | 17.7 | 0.00 | 0.91 | 0.91 | 55 | 1005.0 |
| 20260506213023 | 15 | 300 | 9.7 | 19.3 | 0.00 | 0.91 | 0.91 | 56 | 1004.9 |
| 20260506211518 | 15 | 250 | 0.0 | 6.4 | 0.00 | 0.91 | 0.91 | 60 | 1004.5 |
| 20260506210019 | 15 | 230 | 3.2 | 6.4 | 0.00 | 0.91 | 0.91 | 60 | 1004.6 |
| 20260506204517 | 15 | 244 | 1.6 | 8.0 | 0.00 | 0.91 | 0.91 | 60 | 1004.5 |
| 20260506203020 | 15 | 227 | 4.8 | 14.5 | 0.00 | 0.91 | 0.91 | 60 | 1004.6 |
| 20260506201516 | 15 | 240 | 3.2 | 11.3 | 0.00 | 0.91 | 0.91 | 60 | 1004.4 |
| 20260506200020 | 15 | 247 | 4.8 | 12.9 | 0.00 | 0.91 | 0.91 | 60 | 1004.4 |
| 20260506194515 | 15 | 249 | 1.6 | 14.5 | 0.00 | 0.91 | 0.91 | 60 | 1004.7 |
| 20260506193013 | 15 | 252 | 3.2 | 11.3 | 0.00 | 0.91 | 0.91 | 60 | 1004.7 |
| 20260506191513 | 15 | 218 | 1.6 | 14.5 | 0.00 | 0.91 | 0.91 | 60 | 1004.8 |
| 20260506190021 | 15 | 266 | 8.0 | 16.1 | 0.05 | 0.91 | 0.91 | 60 | 1004.7 |
| 20260506184516 | 15 | 281 | 4.8 | 17.7 | 0.05 | 0.91 | 0.91 | 60 | 1004.7 |
| 20260506183009 | 14 | 245 | 3.2 | 11.3 | 0.08 | 0.91 | 0.91 | 60 | 1005.0 |
| 20260506181512 | 14 | 213 | 1.6 | 6.4 | 0.08 | 0.91 | 0.91 | 60 | 1005.3 |
| 20260506180009 | 14 | 273 | 0.0 | 9.7 | 0.05 | 0.86 | 0.86 | 59 | 1005.4 |
| 20260506174507 | 14 | 214 | 4.8 | 11.3 | 0.05 | 0.86 | 0.86 | 59 | 1005.5 |
| 20260506173005 | 14 | 265 | 1.6 | 9.7 | 0.05 | 0.84 | 0.84 | 58 | 1005.3 |
| 20260506171505 | 13 | 240 | 4.8 | 16.1 | 0.08 | 0.84 | 0.84 | 58 | 1005.6 |
| 20260506170003 | 13 | 264 | 3.2 | 11.3 | 0.05 | 0.81 | 0.81 | 58 | 1005.5 |
| 20260506164504 | 13 | 254 | 3.2 | 19.3 | 0.10 | 0.81 | 0.81 | 58 | 1005.2 |
| 20260506163007 | 13 | 232 | 6.4 | 16.1 | 0.10 | 0.76 | 0.76 | 58 | 1005.4 |
| 20260506161600 | 14 | 250 | 4.8 | 17.7 | 0.23 | 0.76 | 0.76 | 58 | 1005.3 |
| 20260506154558 | 13 | 236 | 4.8 | 19.3 | 0.38 | 0.71 | 0.71 | 57 | 1005.5 |
| 20260506153058 | 13 | 239 | 4.8 | 11.3 | 0.33 | 0.66 | 0.66 | 56 | 1005.7 |
| 20260506151555 | 14 | 155 | 6.4 | 14.5 | 0.23 | 0.53 | 0.53 | 56 | 1006.3 |
| 20260506150057 | 14 | 287 | 1.6 | 12.9 | 0.13 | 0.38 | 0.38 | 56 | 1005.8 |
| 20260506144604 | 14 | 179 | 6.4 | 14.5 | 0.13 | 0.36 | 0.36 | 56 | 1005.6 |
| 20260506143052 | 14 | 158 | 0.0 | 12.9 | 0.13 | 0.33 | 0.33 | 55 | 1005.6 |
| 20260506141548 | 14 | 233 | 4.8 | 12.9 | 0.15 | 0.30 | 0.30 | 52 | 1005.9 |
| 20260506140048 | 14 | 177 | 1.6 | 6.4 | 0.15 | 0.25 | 0.25 | 52 | 1006.1 |
| 20260506134548 | 14 | 216 | 0.0 | 4.8 | 0.15 | 0.23 | 0.23 | 51 | 1006.2 |
| 20260506133051 | 14 | 215 | 1.6 | 8.0 | 0.15 | 0.20 | 0.20 | 51 | 1006.4 |
| 20260506131546 | 14 | 224 | 0.0 | 8.0 | 0.13 | 0.15 | 0.15 | 51 | 1006.5 |
| 20260506130046 | 14 | 210 | 1.6 | 8.0 | 0.10 | 0.10 | 0.10 | 52 | 1006.7 |
| 20260506124543 | 15 | 246 | 1.6 | 9.7 | 0.08 | 0.08 | 0.08 | 54 | 1006.6 |
| 20260506123041 | 15 | 248 | 1.6 | 12.9 | 0.05 | 0.05 | 0.05 | 55 | 1006.4 |
| 20260506121539 | 15 | 183 | 1.6 | 12.9 | 0.03 | 0.03 | 0.03 | 58 | 1006.5 |
| 20260506120038 | 15 | 190 | 0.0 | 8.0 | 0.00 | 0.00 | 0.00 | 57 | 1006.2 |
| 20260506114536 | 15 | 238 | 3.2 | 17.7 | 0.00 | 0.00 | 0.00 | 58 | 1006.1 |
| 20260506113035 | 15 | 165 | 1.6 | 8.0 | 0.00 | 0.00 | 0.00 | 58 | 1006.1 |
| 20260506111533 | 15 | 200 | 3.2 | 11.3 | 0.00 | 0.00 | 0.00 | 57 | 1006.4 |
| 20260506110134 | 16 | 148 | 4.8 | 11.3 | 0.00 | 0.00 | 0.00 | 56 | 1006.1 |
| 20260506104530 | 16 | 210 | 1.6 | 11.3 | 0.00 | 0.00 | 0.00 | 55 | 1005.9 |
| 20260506103030 | 16 | 188 | 1.6 | 9.7 | 0.00 | 0.00 | 0.00 | 55 | 1005.5 |
| 20260506101527 | 16 | 186 | 0.0 | 14.5 | 0.00 | 0.00 | 0.00 | 55 | 1005.4 |
| 20260506100025 | 16 | 143 | 1.6 | 9.7 | 0.00 | 0.00 | 0.00 | 54 | 1005.5 |
| 20260506094524 | 16 | 169 | 1.6 | 11.3 | 0.00 | 0.00 | 0.00 | 53 | 1005.5 |
| 20260506093030 | 16 | 175 | 3.2 | 9.7 | 0.00 | 0.00 | 0.00 | 52 | 1005.8 |
| 20260506091526 | 16 | 205 | 0.0 | 6.4 | 0.00 | 0.00 | 0.00 | 51 | 1005.7 |
| 20260506090023 | 16 | 225 | 0.0 | 8.0 | 0.00 | 0.00 | 0.00 | 50 | 1005.9 |
| 20260506084532 | 16 | 227 | 0.0 | 4.8 | 0.00 | 0.00 | 0.00 | 49 | 1005.7 |
| 20260506083017 | 16 | 242 | 0.0 | 4.8 | 0.00 | 0.00 | 0.00 | 48 | 1005.9 |
| 20260506081517 | 16 | 212 | 0.0 | 6.4 | 0.00 | 0.00 | 0.00 | 47 | 1006.0 |
| 20260506073011 | 17 | 248 | 0.0 | 6.4 | 0.00 | 0.00 | 0.00 | 45 | 1006.2 |
| 20260506071509 | 17 | 231 | 3.2 | 11.3 | 0.00 | 0.00 | 0.00 | 45 | 1006.3 |
| 20260506061503 | 17 | 231 | 4.8 | 12.9 | 0.00 | 0.00 | 0.00 | 42 | 1006.8 |
| 20260506050104 | 18 | 290 | 3.2 | 17.7 | 0.00 | 0.00 | 0.00 | 39 | 1007.5 |
| 20260506044554 | 18 | 259 | 0.0 | 12.9 | 0.00 | 0.00 | 0.00 | 38 | 1007.5 |
| 20260506043056 | 18 | 308 | 3.2 | 14.5 | 0.00 | 0.00 | 0.00 | 38 | 1007.4 |
| 20260506041556 | 18 | 244 | 6.4 | 17.7 | 0.00 | 0.00 | 0.00 | 38 | 1007.4 |
| 20260506040050 | 18 | 219 | 3.2 | 14.5 | 0.00 | 0.00 | 0.00 | 37 | 1007.5 |
| 20260506034553 | 17 | 252 | 3.2 | 11.3 | 0.00 | 0.00 | 0.00 | 37 | 1007.6 |
| 20260506033101 | 18 | 199 | 1.6 | 8.0 | 0.00 | 0.00 | 0.00 | 37 | 1007.5 |
| 20260506031552 | 18 | 232 | 0.0 | 9.7 | 0.00 | 0.00 | 0.00 | 37 | 1007.5 |
| 20260506030058 | 18 | 225 | 1.6 | 4.8 | 0.00 | 0.00 | 0.00 | 37 | 1007.5 |
| 20260506024602 | 19 | 213 | 0.0 | 6.4 | 0.00 | 0.00 | 0.00 | 35 | 1007.5 |
| 20260506023047 | 20 | 218 | 0.0 | 11.3 | 0.00 | 0.00 | 0.00 | 34 | 1007.6 |
| 20260506021555 | 20 | 225 | 1.6 | 14.5 | 0.00 | 0.00 | 0.00 | 33 | 1007.6 |
| 20260506020046 | 20 | 237 | 3.2 | 17.7 | 0.00 | 0.00 | 0.00 | 35 | 1007.6 |
| 20260506014546 | 20 | 184 | 4.8 | 14.5 | 0.00 | 0.00 | 0.00 | 36 | 1007.4 |
| 20260506013048 | 20 | 201 | 0.0 | 4.8 | 0.00 | 0.00 | 0.00 | 35 | 1007.3 |
| 20260506011609 | 21 | 172 | 4.8 | 12.9 | 0.00 | 0.00 | 0.00 | 34 | 1007.2 |
| 20260506010044 | 21 | 203 | 8.0 | 17.7 | 0.00 | 0.00 | 0.00 | 33 | 1006.9 |
| 20260506004546 | 21 | 171 | 8.0 | 17.7 | 0.00 | 0.00 | 0.00 | 33 | 1006.6 |
| 20260506003043 | 21 | 217 | 4.8 | 16.1 | 0.00 | 0.00 | 0.00 | 32 | 1006.6 |
| 20260506001543 | 22 | 176 | 3.2 | 17.7 | 0.00 | 0.00 | 0.00 | 31 | 1006.5 |